Creek Data

    Home     View Charts     View Raw Data     Messages

ID Distance Battery Voltage Battery Current Internal Temp Internal Humidity External Temp Solar Input rssi snr Time Stamp Record
34125 15.2 4.00 0 56 38 55 5.1 -76 8 03/05/2025 10:45 AM 15844
34124 15.2 4.14 0 56 37 56 5.1 -76 7 03/05/2025 10:30 AM 15843
34123 15.2 4.00 5 56 37 55 5.1 -75 8 03/05/2025 10:15 AM 15842
34122 15.2 4.00 5 55 37 55 5.1 -77 8 03/05/2025 10:00 AM 15841
34121 15.2 4.00 5 54 37 54 5.1 -77 7 03/05/2025 09:45 AM 15840
34120 15.2 4.09 67 53 37 53 4.5 -77 8 03/05/2025 09:30 AM 15839
34119 15.2 4.04 44 52 37 52 4.5 -76 8 03/05/2025 09:15 AM 15838
34118 15.2 4.03 42 51 37 51 4.5 -76 8 03/05/2025 09:00 AM 15837
34117 15.2 4.00 20 51 38 51 4.6 -77 8 03/05/2025 08:45 AM 15836
34116 15.2 4.03 0 50 38 50 4.5 -77 8 03/05/2025 08:30 AM 15835
34115 15.2 4.00 9 50 38 50 4.5 -76 8 03/05/2025 08:15 AM 15834
34114 15.1 3.94 5 50 38 50 4.5 -77 7 03/05/2025 08:00 AM 15833
34113 15.1 3.98 0 49 38 50 4.5 -77 7 03/05/2025 07:45 AM 15832
34112 15.1 3.92 0 49 38 50 4.5 -76 8 03/05/2025 07:30 AM 15831
34111 15.1 3.91 -6 49 38 49 4.5 -76 8 03/05/2025 07:15 AM 15830
34110 15.1 3.90 -16 49 38 49 4.5 -76 8 03/05/2025 07:00 AM 15829
34109 15.1 3.90 -30 49 38 49 3.2 -77 8 03/05/2025 06:45 AM 15828
34108 15.1 3.91 -5 49 38 49 0.6 -77 8 03/05/2025 06:30 AM 15827
34107 15.1 3.97 -5 48 38 49 0 -76 8 03/05/2025 06:15 AM 15826
34106 15.1 3.92 -5 48 38 49 0 -77 8 03/05/2025 06:00 AM 15825
34105 15.1 3.92 -5 48 38 49 0 -77 8 03/05/2025 05:45 AM 15824
34104 15.1 3.97 -5 48 38 49 0 -77 7 03/05/2025 05:30 AM 15823
34103 15.1 3.92 -5 48 39 49 0 -76 8 03/05/2025 05:15 AM 15822
34102 15.1 3.92 -5 48 38 49 0 -76 8 03/05/2025 05:00 AM 15821
34101 15.1 3.92 -5 48 38 49 0 -75 8 03/05/2025 04:45 AM 15820